Regional Weather Roundup
Issued by NWS Cleveland, OH

Home | Current Version | Previous Version | Graphics & Text | Print | Product List | Glossary On
Versions: 1 2 3 4 5 6 7 8 9 10 11 12 13 14 15 16 17 18 19 20 21 22 23 24 25 26 27 28 29 30 31 32 33 34 35 36 37 38 39 40 41 42 43 44 45 46 47 48 49 50
000
ASUS41 KCLE 250510
RWRCLE
OHIO REGIONAL WEATHER ROUNDUP
NATIONAL WEATHER SERVICE CLEVELAND, OH
1200 AM EST SAT NOV 25 2017

NOTE: "FAIR" INDICATES FEW OR NO CLOUDS BELOW 12,000 FEET WITH NO
SIGNIFICANT WEATHER AND/OR OBSTRUCTIONS TO VISIBILITY.

OHZ001>008-015>018-024>027-034-035-043-044-250600-
   NORTHWEST OHIO

CITY           SKY/WX    TMP DP  RH WIND       PRES   REMARKS
DEFIANCE       PTCLDY    47  31  53 SW12      29.60F
FINDLAY        PTCLDY    49  29  46 SW20      29.62F
TOLEDO EXPRESS CLEAR     49  32  52 SW13G28   29.58F
TOLEDO EXEC    PTCLDY    48  31  51 SW12      29.61S
LIMA           PTCLDY    49  29  46 S16G30    29.64F
$$

OHZ009>014-019>023-028>033-038-089-250600-
   NORTHEAST OHIO

CITY           SKY/WX    TMP DP  RH WIND       PRES   REMARKS
CLE-HOPKINS    PTCLDY    51  26  37 S17G26    29.65F
CLE-LAKEFRONT  PTCLDY    52  25  35 S17G33    29.61F
CUY CO. ARPT   NOT AVBL
LORAIN-ELYRIA  PTCLDY    49  24  37 SW17      29.64S
ASHTABULA      CLOUDY    47  23  38 S15       29.65F
AKRON-CANTON   MOCLDY    50  22  33 SW13      29.69F
WOOSTER        CLOUDY    46  24  42 S13       29.69S
MANSFIELD      PTCLDY    50  27  40 S26G35    29.65F
YOUNGSTOWN     MOCLDY    47  22  37 S8        29.69F
$$

OHZ042-051>053-060>062-070>072-077>081-250600-
  SOUTHWEST OHIO

CITY           SKY/WX    TMP DP  RH WIND       PRES   REMARKS
CINC-COVINGTON CLEAR     50  28  42 SW12      29.77R
CINC-LUNKEN    CLEAR     48  29  47 S10       29.76F
HAMILTON       PTCLDY    52  28  39 SW7       29.76R
DAYTON         MOCLDY    49  28  44 S17       29.71R
WRIGHT-PAT AFB MOCLDY    50  24  36 S15       29.72S
DAYTON GENERAL MOCLDY    50  25  37 SW13      29.74R
WILMINGTON     CLEAR     47  28  47 S15       29.73F
$$

OHZ036-037-039>041-045>050-054>059-063>069-073>076-082>088-250600-
  CENTRAL AND SOUTHEAST OHIO

CITY           SKY/WX    TMP DP  RH WIND       PRES   REMARKS
COLUMBUS       MOCLDY    49  25  39 S8        29.74R
OSU AIRPORT    PTCLDY    46  28  49 S9        29.72S
BOLTON FIELD   PTCLDY    46  28  48 SW12      29.74R
RICKENBACK AFB PTCLDY    46  26  45 S8        29.74R
NEWARK         PTCLDY    48  23  37 SW6       29.73F
MARION         MOCLDY    48  27  44 SW16G26   29.69R
LANCASTER      CLOUDY    51  25  36 S9        29.75S
ZANESVILLE     PTCLDY    47  23  38 S8        29.75F
NEW PHILLY     NOT AVBL
$$



USA.gov is the U.S. government's official web portal to all federal, state and local government web resources and services.